QPF
0.00 0.00 0.01 0.01 0.01 0.01 0.01 0.01 0.01 0.01 0.02 0.02 0.01 0.00 0.00 0.00 0.00 0.01 0.00 0.00 0.01 0.01 0.01 0.01 0.01 0.00 0.00 0.00 0.00 0.00 0.01 0.01 0.01 0.01 0.00 0.00 0.01 0.01 0.01 0.01 0.00 0.01 0.01
0.00 0.00 0.01 0.01 0.01 0.01 0.01 0.01 0.01 0.01 0.02 0.03 0.03 0.01 0.00 0.00 0.01 0.01 0.00 0.00 0.00 0.01 0.01 0.01 0.01 0.01 0.01 0.01 0.01 0.01 0.01 0.00 0.00 0.00 0.00 0.00 0.00 0.00 0.00 0.00 0.00 0.00 0.01
0.00 0.00 0.01 0.01 0.01 0.01 0.01 0.01 0.01 0.01 0.01 0.02 0.03 0.03 0.01 0.01 0.01 0.01 0.00 0.00 0.01 0.01 0.02 0.02 0.01 0.02 0.02 0.01 0.01 0.01 0.01 0.00 0.00 0.00 0.00 0.00 0.00 0.00 0.00 0.00 0.00 0.01 0.01
0.00 0.00 0.00 0.01 0.02 0.02 0.02 0.01 0.01 0.01 0.01 0.01 0.02 0.03 0.03 0.02 0.01 0.01 0.01 0.01 0.01 0.01 0.02 0.02 0.02 0.02 0.01 0.00 0.00 0.00 0.00 0.00 0.00 0.00 0.00 0.00 0.00 0.00 0.00 0.00 0.00 0.00 0.00
0.00 0.00 0.00 0.01 0.02 0.02 0.03 0.03 0.02 0.01 0.01 0.01 0.01 0.03 0.04 0.04 0.02 0.01 0.01 0.02 0.01 0.01 0.01 0.02 0.01 0.01 0.00 0.00 0.00 0.00 0.00 0.00 0.00 0.00 0.00 0.00 0.00 0.00 0.00 0.00 0.00 0.00 0.00
0.01 0.01 0.01 0.01 0.02 0.03 0.03 0.03 0.02 0.02 0.01 0.01 0.01 0.03 0.04 0.07 0.04 0.02 0.02 0.02 0.01 0.01 0.01 0.02 0.02 0.01 0.00 0.00 0.00 0.00 0.00 0.00 0.00 0.00 0.00 0.00 0.00 0.00 0.00 0.00 0.00 0.00 0.00
0.01 0.01 0.01 0.02 0.03 0.03 0.04 0.03 0.03 0.04 0.03 0.02 0.02 0.02 0.03 0.06 0.07 0.05 0.02 0.01 0.01 0.01 0.01 0.01 0.01 0.00 0.00 0.00 0.00 0.00 0.00 0.00 0.00 0.00 0.00 0.00 0.01 0.01 0.00 0.00 0.00 0.00 0.00
0.00 0.01 0.02 0.03 0.03 0.04 0.04 0.04 0.04 0.05 0.06 0.05 0.03 0.03 0.03 0.04 0.05 0.07 0.05 0.02 0.01 0.01 0.02 0.01 0.01 0.01 0.00 0.00 0.00 0.00 0.00 0.00 0.00 0.00 0.00 0.00 0.00 0.00 0.00 0.00 0.00 0.00 0.01
0.00 0.00 0.01 0.02 0.03 0.03 0.04 0.04 0.05 0.05 0.05 0.05 0.04 0.04 0.03 0.04 0.05 0.06 0.06 0.04 0.02 0.02 0.02 0.02 0.01 0.02 0.01 0.00 0.00 0.00 0.00 0.00 0.00 0.00 0.00 0.00 0.00 0.00 0.00 0.00 0.00 0.00 0.01
0.01 0.01 0.01 0.01 0.02 0.03 0.04 0.05 0.05 0.05 0.04 0.04 0.04 0.03 0.02 0.02 0.03 0.04 0.04 0.04 0.03 0.03 0.02 0.02 0.01 0.01 0.00 0.00 0.00 0.00 0.00 0.00 0.00 0.00 0.00 0.00 0.00 0.00 0.00 0.00 0.00 0.00 0.00
0.01 0.01 0.02 0.02 0.02 0.03 0.04 0.04 0.05 0.05 0.04 0.04 0.03 0.02 0.01 0.01 0.01 0.02 0.02 0.02 0.02 0.03 0.02 0.01 0.01 0.01 0.00 0.00 0.00 0.00 0.00 0.00 0.00 0.00 0.00 0.00 0.00 0.00 0.00 0.00 0.00 0.00 0.00
0.01 0.01 0.03 0.03 0.03 0.03 0.04 0.03 0.04 0.05 0.05 0.04 0.03 0.02 0.01 0.01 0.01 0.01 0.01 0.01 0.02 0.02 0.02 0.02 0.01 0.01 0.01 0.00 0.00 0.00 0.00 0.00 0.00 0.00 0.00 0.00 0.00 0.00 0.00 0.00 0.00 0.00 0.00
0.01 0.01 0.02 0.03 0.05 0.05 0.05 0.05 0.04 0.03 0.04 0.04 0.03 0.03 0.02 0.02 0.02 0.02 0.01 0.01 0.01 0.01 0.02 0.01 0.02 0.01 0.00 0.00 0.00 0.00 0.00 0.00 0.00 0.00 0.00 0.00 0.00 0.00 0.00 0.00 0.00 0.00 0.00
0.01 0.01 0.01 0.02 0.03 0.06 0.06 0.05 0.05 0.04 0.03 0.03 0.04 0.03 0.03 0.03 0.03 0.03 0.02 0.01 0.01 0.01 0.01 0.01 0.01 0.01 0.01 0.00 0.00 0.00 0.00 0.00 0.00 0.00 0.00 0.00 0.00 0.00 0.00 0.01 0.00 0.00 0.00
0.01 0.00 0.01 0.01 0.02 0.04 0.06 0.06 0.06 0.05 0.04 0.04 0.04 0.05 0.05 0.04 0.04 0.04 0.03 0.03 0.02 0.01 0.01 0.02 0.01 0.01 0.01 0.01 0.01 0.01 0.01 0.00 0.00 0.00 0.00 0.00 0.00 0.00 0.00 0.00 0.00 0.00 0.00
0.00 0.00 0.01 0.01 0.01 0.02 0.04 0.07 0.07 0.07 0.06 0.06 0.06 0.06 0.06 0.05 0.05 0.07 0.05 0.04 0.03 0.02 0.03 0.03 0.04 0.03 0.02 0.01 0.01 0.01 0.01 0.00 0.00 0.00 0.00 0.00 0.00 0.00 0.00 0.00 0.00 0.00 0.00
0.00 0.00 0.00 0.01 0.02 0.01 0.02 0.06 0.08 0.08 0.08 0.08 0.07 0.07 0.07 0.06 0.07 0.06 0.05 0.05 0.04 0.04 0.04 0.04 0.04 0.06 0.06 0.04 0.02 0.01 0.00 0.00 0.00 0.00 0.00 0.00 0.00 0.00 0.00 0.00 0.01 0.01 0.01
0.00 0.00 0.00 0.00 0.01 0.02 0.02 0.04 0.08 0.09 0.08 0.08 0.08 0.08 0.08 0.08 0.08 0.08 0.06 0.05 0.06 0.06 0.06 0.04 0.03 0.03 0.05 0.06 0.04 0.03 0.01 0.01 0.00 0.00 0.00 0.00 0.00 0.00 0.00 0.00 0.00 0.01 0.01
0.00 0.00 0.00 0.00 0.01 0.02 0.02 0.03 0.07 0.11 0.09 0.08 0.09 0.11 0.09 0.08 0.08 0.07 0.06 0.05 0.06 0.08 0.08 0.07 0.05 0.04 0.04 0.05 0.05 0.06 0.04 0.02 0.01 0.01 0.00 0.00 0.00 0.00 0.00 0.01 0.01 0.00 0.00
0.00 0.00 0.00 0.00 0.01 0.01 0.02 0.04 0.08 0.12 0.11 0.09 0.09 0.13 0.15 0.13 0.10 0.09 0.09 0.07 0.07 0.07 0.08 0.08 0.07 0.05 0.05 0.06 0.07 0.06 0.04 0.02 0.02 0.01 0.01 0.01 0.01 0.01 0.01 0.01 0.01 0.01 0.01
0.00 0.00 0.00 0.00 0.01 0.01 0.02 0.03 0.08 0.12 0.11 0.11 0.11 0.12 0.16 0.18 0.16 0.12 0.09 0.08 0.07 0.07 0.07 0.08 0.09 0.10 0.09 0.08 0.09 0.07 0.04 0.03 0.02 0.02 0.01 0.01 0.01 0.01 0.01 0.01 0.01 0.00 0.00
0.00 0.00 0.00 0.00 0.00 0.01 0.02 0.03 0.08 0.11 0.12 0.12 0.13 0.14 0.16 0.17 0.15 0.12 0.09 0.06 0.05 0.05 0.06 0.06 0.07 0.08 0.09 0.09 0.10 0.10 0.08 0.06 0.05 0.04 0.03 0.02 0.01 0.02 0.01 0.01 0.00 0.00 0.01
0.01 0.00 0.00 0.01 0.01 0.01 0.02 0.05 0.09 0.11 0.11 0.13 0.15 0.16 0.16 0.17 0.16 0.12 0.10 0.06 0.05 0.05 0.06 0.07 0.07 0.07 0.07 0.08 0.08 0.09 0.08 0.07 0.05 0.04 0.05 0.04 0.03 0.03 0.02 0.02 0.01 0.01 0.00
0.02 0.01 0.01 0.01 0.01 0.01 0.02 0.06 0.08 0.09 0.09 0.09 0.13 0.16 0.17 0.15 0.17 0.15 0.12 0.09 0.07 0.07 0.09 0.09 0.09 0.08 0.08 0.10 0.10 0.09 0.08 0.06 0.05 0.04 0.04 0.03 0.03 0.03 0.03 0.03 0.03 0.02 0.01
0.03 0.02 0.02 0.02 0.02 0.02 0.03 0.05 0.07 0.09 0.08 0.08 0.10 0.15 0.16 0.15 0.16 0.15 0.14 0.13 0.10 0.08 0.08 0.08 0.09 0.08 0.08 0.08 0.09 0.08 0.08 0.07 0.05 0.04 0.03 0.02 0.02 0.02 0.02 0.02 0.03 0.03 0.02
0.02 0.02 0.03 0.02 0.02 0.03 0.04 0.05 0.07 0.08 0.07 0.08 0.08 0.11 0.15 0.13 0.12 0.13 0.11 0.11 0.10 0.09 0.08 0.07 0.07 0.06 0.07 0.06 0.07 0.07 0.06 0.06 0.06 0.05 0.04 0.03 0.02 0.01 0.01 0.02 0.02 0.02 0.03
MSLP
1015.98 1015.17 1014.48 1014.02 1013.84 1013.91 1014.15 1014.46 1014.73 1014.91 1014.95 1014.89 1014.80 1014.73 1014.75 1014.87 1015.09 1015.35 1015.62 1015.83 1015.97 1016.03 1016.05 1016.06 1016.11 1016.21 1016.36 1016.55 1016.72 1016.84 1016.90 1016.88 1016.81 1016.73 1016.66 1016.63 1016.67 1016.75 1016.85 1016.95 1017.02 1017.05 1017.03
1016.20 1015.34 1014.60 1014.10 1013.88 1013.92 1014.14 1014.43 1014.71 1014.90 1014.98 1014.97 1014.92 1014.90 1014.96 1015.12 1015.35 1015.61 1015.87 1016.05 1016.16 1016.20 1016.20 1016.21 1016.25 1016.35 1016.52 1016.71 1016.89 1017.03 1017.11 1017.12 1017.08 1017.02 1016.97 1016.97 1017.01 1017.08 1017.18 1017.27 1017.33 1017.35 1017.34
1016.31 1015.43 1014.66 1014.14 1013.89 1013.91 1014.11 1014.40 1014.68 1014.89 1015.00 1015.04 1015.04 1015.07 1015.16 1015.33 1015.57 1015.82 1016.05 1016.20 1016.29 1016.31 1016.29 1016.29 1016.33 1016.44 1016.61 1016.81 1017.02 1017.18 1017.29 1017.34 1017.34 1017.31 1017.30 1017.31 1017.35 1017.43 1017.50 1017.57 1017.62 1017.63 1017.62
1016.31 1015.43 1014.68 1014.16 1013.91 1013.91 1014.11 1014.39 1014.67 1014.88 1015.02 1015.08 1015.12 1015.18 1015.30 1015.47 1015.70 1015.93 1016.13 1016.26 1016.32 1016.33 1016.31 1016.31 1016.36 1016.48 1016.66 1016.88 1017.10 1017.30 1017.44 1017.53 1017.58 1017.60 1017.61 1017.64 1017.69 1017.75 1017.80 1017.85 1017.87 1017.87 1017.87
1016.25 1015.42 1014.70 1014.22 1013.99 1013.99 1014.16 1014.42 1014.67 1014.88 1015.01 1015.08 1015.13 1015.20 1015.33 1015.50 1015.71 1015.93 1016.10 1016.22 1016.27 1016.28 1016.28 1016.30 1016.37 1016.51 1016.71 1016.94 1017.18 1017.39 1017.57 1017.70 1017.79 1017.85 1017.90 1017.94 1017.99 1018.03 1018.07 1018.08 1018.09 1018.09 1018.09
1016.21 1015.44 1014.79 1014.36 1014.16 1014.16 1014.31 1014.51 1014.71 1014.87 1014.97 1015.02 1015.06 1015.14 1015.26 1015.43 1015.63 1015.83 1015.99 1016.11 1016.18 1016.21 1016.23 1016.29 1016.39 1016.55 1016.76 1017.00 1017.25 1017.48 1017.67 1017.83 1017.95 1018.05 1018.12 1018.19 1018.23 1018.27 1018.28 1018.28 1018.27 1018.27 1018.27
1016.23 1015.55 1015.00 1014.63 1014.45 1014.44 1014.53 1014.66 1014.78 1014.86 1014.90 1014.91 1014.93 1014.99 1015.11 1015.27 1015.47 1015.67 1015.84 1015.97 1016.06 1016.13 1016.20 1016.29 1016.43 1016.61 1016.84 1017.08 1017.33 1017.55 1017.75 1017.92 1018.06 1018.18 1018.27 1018.35 1018.41 1018.44 1018.45 1018.45 1018.43 1018.43 1018.45
1016.38 1015.79 1015.33 1015.02 1014.86 1014.81 1014.83 1014.86 1014.87 1014.86 1014.81 1014.77 1014.77 1014.82 1014.93 1015.10 1015.29 1015.50 1015.68 1015.83 1015.96 1016.07 1016.18 1016.32 1016.50 1016.70 1016.93 1017.17 1017.40 1017.60 1017.79 1017.95 1018.09 1018.22 1018.34 1018.43 1018.51 1018.55 1018.57 1018.57 1018.57 1018.58 1018.62
1016.65 1016.17 1015.78 1015.51 1015.34 1015.24 1015.16 1015.07 1014.97 1014.84 1014.72 1014.63 1014.61 1014.65 1014.76 1014.94 1015.14 1015.35 1015.55 1015.72 1015.87 1016.02 1016.18 1016.36 1016.57 1016.79 1017.02 1017.24 1017.44 1017.62 1017.77 1017.91 1018.05 1018.18 1018.31 1018.43 1018.52 1018.60 1018.64 1018.66 1018.68 1018.71 1018.77
1017.04 1016.63 1016.30 1016.05 1015.85 1015.67 1015.48 1015.27 1015.05 1014.83 1014.64 1014.52 1014.48 1014.53 1014.65 1014.83 1015.04 1015.25 1015.44 1015.62 1015.78 1015.96 1016.15 1016.36 1016.60 1016.84 1017.07 1017.28 1017.45 1017.59 1017.71 1017.82 1017.93 1018.06 1018.20 1018.33 1018.46 1018.57 1018.64 1018.70 1018.75 1018.80 1018.88
1017.48 1017.14 1016.85 1016.59 1016.33 1016.06 1015.76 1015.44 1015.11 1014.81 1014.57 1014.43 1014.40 1014.46 1014.59 1014.78 1014.98 1015.17 1015.34 1015.50 1015.67 1015.84 1016.05 1016.29 1016.55 1016.81 1017.05 1017.25 1017.40 1017.51 1017.59 1017.67 1017.76 1017.88 1018.01 1018.17 1018.32 1018.46 1018.58 1018.67 1018.75 1018.84 1018.94
1017.95 1017.64 1017.36 1017.07 1016.75 1016.38 1015.97 1015.55 1015.13 1014.78 1014.52 1014.38 1014.36 1014.44 1014.58 1014.76 1014.94 1015.09 1015.22 1015.35 1015.48 1015.65 1015.86 1016.11 1016.40 1016.68 1016.93 1017.14 1017.28 1017.38 1017.43 1017.48 1017.55 1017.65 1017.78 1017.94 1018.11 1018.28 1018.44 1018.57 1018.68 1018.78 1018.90
1018.39 1018.11 1017.81 1017.47 1017.07 1016.62 1016.11 1015.61 1015.14 1014.75 1014.48 1014.35 1014.35 1014.44 1014.59 1014.74 1014.88 1014.98 1015.05 1015.11 1015.20 1015.34 1015.55 1015.82 1016.12 1016.44 1016.72 1016.95 1017.10 1017.19 1017.23 1017.27 1017.31 1017.39 1017.51 1017.67 1017.85 1018.04 1018.22 1018.37 1018.51 1018.63 1018.75
1018.79 1018.51 1018.18 1017.79 1017.32 1016.78 1016.21 1015.64 1015.13 1014.73 1014.47 1014.36 1014.36 1014.45 1014.58 1014.69 1014.77 1014.80 1014.79 1014.79 1014.83 1014.94 1015.14 1015.41 1015.74 1016.09 1016.41 1016.66 1016.84 1016.95 1016.99 1017.02 1017.05 1017.11 1017.22 1017.37 1017.55 1017.75 1017.93 1018.10 1018.24 1018.37 1018.50
1019.13 1018.84 1018.48 1018.04 1017.51 1016.91 1016.29 1015.69 1015.16 1014.76 1014.50 1014.39 1014.39 1014.45 1014.53 1014.59 1014.59 1014.55 1014.47 1014.40 1014.39 1014.47 1014.64 1014.92 1015.27 1015.65 1016.00 1016.30 1016.51 1016.64 1016.71 1016.73 1016.76 1016.82 1016.91 1017.05 1017.23 1017.42 1017.60 1017.77 1017.92 1018.05 1018.17
1019.43 1019.12 1018.74 1018.25 1017.68 1017.05 1016.41 1015.79 1015.27 1014.86 1014.59 1014.46 1014.43 1014.44 1014.46 1014.45 1014.37 1014.25 1014.11 1013.98 1013.92 1013.97 1014.13 1014.40 1014.76 1015.15 1015.53 1015.85 1016.10 1016.26 1016.35 1016.40 1016.44 1016.50 1016.59 1016.73 1016.89 1017.07 1017.25 1017.42 1017.56 1017.69 1017.80
1019.68 1019.36 1018.95 1018.45 1017.87 1017.23 1016.59 1015.99 1015.47 1015.06 1014.77 1014.60 1014.51 1014.46 1014.39 1014.30 1014.15 1013.96 1013.75 1013.59 1013.49 1013.51 1013.65 1013.90 1014.24 1014.62 1015.00 1015.33 1015.60 1015.79 1015.91 1015.99 1016.06 1016.15 1016.25 1016.39 1016.56 1016.74 1016.91 1017.07 1017.21 1017.33 1017.44
1019.89 1019.56 1019.15 1018.64 1018.08 1017.47 1016.86 1016.28 1015.78 1015.37 1015.05 1014.83 1014.66 1014.51 1014.36 1014.18 1013.96 1013.72 1013.48 1013.28 1013.16 1013.15 1013.26 1013.47 1013.76 1014.11 1014.45 1014.76 1015.03 1015.23 1015.39 1015.51 1015.63 1015.75 1015.89 1016.05 1016.23 1016.41 1016.58 1016.74 1016.87 1016.99 1017.10
1020.03 1019.71 1019.31 1018.83 1018.30 1017.75 1017.20 1016.67 1016.19 1015.78 1015.43 1015.14 1014.88 1014.64 1014.40 1014.14 1013.86 1013.58 1013.32 1013.11 1012.98 1012.94 1013.00 1013.15 1013.37 1013.63 1013.90 1014.17 1014.40 1014.61 1014.79 1014.96 1015.12 1015.30 1015.48 1015.68 1015.89 1016.08 1016.26 1016.42 1016.55 1016.67 1016.78
1020.10 1019.79 1019.41 1018.99 1018.52 1018.05 1017.57 1017.11 1016.68 1016.27 1015.89 1015.54 1015.20 1014.87 1014.54 1014.21 1013.89 1013.59 1013.33 1013.12 1012.97 1012.90 1012.90 1012.96 1013.08 1013.23 1013.41 1013.59 1013.77 1013.96 1014.16 1014.36 1014.58 1014.81 1015.05 1015.29 1015.52 1015.73 1015.91 1016.07 1016.20 1016.32 1016.44
1020.08 1019.79 1019.46 1019.09 1018.71 1018.32 1017.94 1017.56 1017.18 1016.79 1016.40 1015.99 1015.58 1015.17 1014.77 1014.39 1014.05 1013.74 1013.49 1013.29 1013.13 1013.03 1012.96 1012.93 1012.93 1012.95 1013.00 1013.08 1013.20 1013.35 1013.55 1013.78 1014.04 1014.32 1014.60 1014.88 1015.12 1015.34 1015.51 1015.66 1015.79 1015.90 1016.02
1019.98 1019.72 1019.43 1019.12 1018.83 1018.54 1018.26 1017.97 1017.65 1017.30 1016.91 1016.47 1016.01 1015.54 1015.09 1014.68 1014.32 1014.03 1013.79 1013.60 1013.45 1013.31 1013.18 1013.06 1012.93 1012.82 1012.74 1012.71 1012.74 1012.85 1013.02 1013.26 1013.55 1013.86 1014.16 1014.44 1014.68 1014.88 1015.03 1015.15 1015.25 1015.35 1015.47
1019.82 1019.59 1019.34 1019.10 1018.88 1018.68 1018.50 1018.29 1018.05 1017.75 1017.37 1016.93 1016.44 1015.94 1015.46 1015.03 1014.68 1014.40 1014.19 1014.02 1013.87 1013.71 1013.53 1013.32 1013.09 1012.86 1012.66 1012.52 1012.47 1012.52 1012.66 1012.89 1013.17 1013.47 1013.76 1014.01 1014.21 1014.36 1014.46 1014.52 1014.58 1014.65 1014.75
1019.64 1019.44 1019.22 1019.02 1018.86 1018.74 1018.64 1018.52 1018.35 1018.10 1017.75 1017.32 1016.83 1016.33 1015.84 1015.42 1015.07 1014.82 1014.63 1014.49 1014.35 1014.19 1013.97 1013.70 1013.39 1013.07 1012.78 1012.55 1012.42 1012.41 1012.50 1012.69 1012.93 1013.19 1013.43 1013.61 1013.73 1013.79 1013.80 1013.79 1013.78 1013.81 1013.87
1019.48 1019.31 1019.11 1018.93 1018.81 1018.74 1018.69 1018.64 1018.53 1018.34 1018.04 1017.64 1017.16 1016.67 1016.19 1015.78 1015.46 1015.23 1015.07 1014.96 1014.84 1014.68 1014.45 1014.15 1013.79 1013.42 1013.06 1012.78 1012.59 1012.52 1012.56 1012.68 1012.86 1013.04 1013.18 1013.26 1013.27 1013.21 1013.11 1013.00 1012.90 1012.86 1012.89
1019.38 1019.22 1019.03 1018.86 1018.74 1018.69 1018.69 1018.68 1018.62 1018.48 1018.22 1017.85 1017.41 1016.94 1016.48 1016.09 1015.79 1015.59 1015.46 1015.37 1015.28 1015.13 1014.91 1014.62 1014.25 1013.85 1013.47 1013.15 1012.92 1012.80 1012.78 1012.84 1012.92 1013.00 1013.03 1012.99 1012.86 1012.67 1012.44 1012.21 1012.02 1011.90 1011.88
Thickness
5750 5755 5757 5757 5758 5758 5757 5757 5756 5756 5755 5754 5753 5752 5752 5751 5750 5749 5747 5746 5745 5744 5743 5741 5740 5739 5737 5736 5735 5734 5733 5732 5731 5730 5729 5729 5728 5727 5726 5725 5724 5723 5723
5750 5752 5753 5754 5754 5754 5754 5754 5753 5753 5752 5751 5751 5750 5749 5748 5747 5746 5745 5744 5743 5741 5740 5739 5737 5736 5735 5734 5733 5731 5730 5729 5727 5726 5726 5725 5724 5724 5723 5722 5721 5720 5719
5747 5748 5749 5750 5750 5750 5750 5750 5750 5749 5749 5748 5748 5747 5747 5746 5745 5743 5742 5741 5740 5739 5738 5736 5735 5733 5732 5731 5730 5728 5727 5726 5724 5723 5723 5722 5721 5721 5720 5719 5718 5717 5716
5743 5744 5745 5745 5746 5746 5746 5746 5746 5746 5745 5745 5745 5744 5744 5743 5742 5741 5740 5738 5737 5736 5734 5733 5732 5731 5729 5728 5727 5726 5724 5723 5722 5720 5720 5719 5718 5718 5717 5716 5715 5714 5712
5737 5739 5740 5741 5741 5742 5742 5742 5742 5742 5742 5741 5741 5741 5740 5740 5739 5738 5737 5736 5734 5733 5731 5730 5729 5727 5726 5725 5724 5723 5721 5720 5719 5718 5717 5716 5715 5714 5713 5712 5711 5710 5709
5731 5733 5735 5736 5737 5737 5737 5738 5738 5738 5738 5738 5737 5737 5737 5736 5736 5735 5733 5732 5731 5730 5728 5727 5725 5724 5723 5721 5720 5719 5718 5716 5715 5714 5713 5712 5711 5711 5709 5708 5707 5706 5705
5724 5727 5729 5731 5732 5732 5733 5733 5734 5734 5734 5734 5734 5733 5733 5733 5732 5731 5730 5729 5727 5726 5725 5724 5722 5720 5719 5718 5717 5716 5714 5713 5712 5711 5710 5709 5708 5707 5706 5704 5703 5702 5701
5718 5720 5722 5724 5726 5727 5727 5728 5729 5729 5730 5730 5730 5730 5729 5729 5728 5728 5726 5725 5724 5723 5721 5720 5719 5717 5716 5714 5713 5712 5711 5709 5708 5707 5706 5705 5704 5703 5702 5700 5699 5698 5696
5711 5713 5715 5717 5719 5721 5722 5723 5724 5724 5725 5725 5726 5726 5725 5725 5724 5723 5723 5721 5720 5719 5718 5717 5715 5714 5712 5711 5710 5709 5707 5706 5705 5703 5702 5701 5700 5700 5698 5697 5695 5694 5692
5702 5704 5707 5710 5712 5713 5715 5717 5718 5719 5720 5721 5721 5721 5721 5720 5720 5719 5718 5717 5716 5715 5714 5712 5711 5710 5708 5707 5706 5705 5703 5702 5701 5700 5698 5698 5697 5696 5694 5693 5691 5689 5688
5692 5695 5698 5701 5704 5706 5708 5710 5711 5713 5714 5715 5715 5716 5716 5715 5715 5714 5714 5713 5712 5711 5710 5708 5707 5706 5704 5703 5702 5700 5699 5698 5697 5695 5695 5694 5693 5692 5690 5688 5687 5685 5684
5681 5685 5689 5692 5695 5698 5700 5703 5704 5706 5707 5709 5709 5710 5710 5710 5710 5709 5709 5708 5708 5706 5705 5704 5703 5701 5700 5698 5697 5696 5695 5693 5692 5691 5690 5690 5689 5688 5686 5684 5682 5680 5679
5672 5677 5681 5684 5687 5690 5692 5695 5697 5699 5700 5702 5703 5704 5704 5704 5704 5704 5704 5703 5702 5701 5700 5700 5699 5697 5695 5694 5693 5692 5690 5689 5688 5687 5686 5685 5684 5683 5681 5680 5678 5676 5674
5664 5668 5672 5676 5679 5681 5684 5687 5689 5691 5693 5695 5697 5698 5698 5699 5699 5698 5699 5698 5697 5696 5696 5695 5694 5692 5691 5689 5688 5687 5686 5684 5683 5682 5681 5680 5679 5678 5677 5675 5673 5671 5670
5656 5660 5664 5668 5671 5673 5676 5678 5681 5684 5686 5689 5690 5692 5693 5693 5693 5693 5693 5693 5692 5691 5691 5689 5688 5687 5685 5684 5683 5682 5681 5680 5679 5678 5677 5676 5674 5673 5671 5670 5668 5667 5665
5648 5652 5656 5659 5663 5666 5668 5670 5673 5676 5678 5681 5683 5685 5687 5688 5688 5688 5688 5687 5687 5686 5686 5685 5684 5682 5681 5679 5678 5677 5676 5675 5674 5673 5672 5670 5669 5668 5666 5665 5663 5662 5660
5640 5644 5647 5651 5655 5658 5660 5662 5665 5668 5671 5673 5676 5678 5680 5681 5682 5682 5681 5681 5681 5681 5680 5679 5678 5677 5675 5674 5673 5672 5671 5670 5669 5668 5666 5665 5664 5662 5661 5659 5658 5656 5655
5631 5635 5639 5643 5646 5649 5652 5654 5657 5660 5663 5665 5668 5670 5672 5674 5675 5675 5675 5675 5675 5675 5674 5673 5672 5670 5669 5668 5667 5667 5666 5664 5663 5663 5661 5659 5658 5656 5655 5653 5652 5650 5648
5622 5626 5630 5633 5636 5640 5643 5646 5649 5651 5654 5657 5660 5662 5664 5666 5667 5667 5668 5668 5668 5667 5667 5666 5665 5664 5662 5661 5661 5661 5660 5659 5658 5657 5655 5653 5652 5651 5649 5647 5645 5643 5642
5613 5617 5621 5624 5627 5631 5634 5637 5639 5642 5645 5648 5651 5653 5655 5657 5658 5658 5659 5660 5660 5660 5659 5658 5657 5656 5656 5655 5654 5653 5653 5653 5651 5650 5649 5647 5645 5644 5642 5640 5638 5636 5635
5603 5607 5612 5614 5617 5621 5623 5626 5628 5631 5634 5638 5641 5644 5646 5648 5649 5649 5650 5651 5651 5651 5652 5651 5650 5648 5647 5646 5644 5643 5644 5645 5644 5644 5642 5641 5639 5637 5635 5633 5631 5629 5627
5594 5597 5601 5604 5608 5611 5614 5616 5619 5621 5624 5628 5631 5634 5636 5639 5640 5641 5641 5642 5642 5642 5642 5642 5641 5639 5638 5638 5635 5633 5632 5634 5636 5636 5635 5633 5632 5630 5628 5626 5624 5623 5620
5585 5588 5593 5595 5599 5603 5605 5607 5609 5611 5614 5616 5620 5624 5627 5630 5631 5632 5632 5632 5632 5633 5633 5633 5633 5632 5630 5629 5628 5626 5623 5624 5623 5625 5626 5625 5623 5621 5620 5618 5617 5615 5612
5578 5581 5584 5588 5592 5595 5597 5598 5600 5602 5604 5606 5610 5613 5616 5619 5621 5622 5623 5623 5623 5623 5624 5625 5625 5625 5623 5620 5619 5618 5617 5616 5613 5614 5615 5615 5614 5612 5611 5609 5608 5606 5605
5572 5574 5577 5581 5585 5587 5589 5590 5592 5593 5595 5597 5599 5603 5606 5609 5611 5612 5613 5614 5614 5614 5615 5615 5616 5616 5615 5613 5611 5610 5607 5605 5605 5603 5604 5605 5604 5604 5603 5602 5600 5598 5597
5566 5568 5570 5573 5577 5580 5581 5582 5584 5585 5587 5588 5590 5593 5597 5600 5601 5603 5604 5605 5605 5606 5606 5607 5607 5607 5606 5605 5604 5602 5600 5598 5596 5593 5592 5593 5594 5596 5595 5594 5592 5591 5588